Other Public Products
Issued by NWS Grand Forks, ND

Home | Current Version | Previous Version | Text Only | Print | Product List | Glossary Off
Versions: 1 2 3 4 5 6 7 8 9 10 11 12 13 14 15 16 17 18 19 20 21 22 23 24 25 26 27 28 29 30 31 32 33 34 35 36 37 38 39 40 41 42 43 44 45 46 47 48 49 50

000
FPUS83 KFGF 090431
OPUFGF
PRAIRIE TO PINES WEATHER ROUNDUP
NATIONAL WEATHER SERVICE EASTERN NORTH DAKOTA/GRAND FORKS ND
1000 PM CST MON FEB 08 2016

 **SATELLITE DATA USED TO AUGMENT SKY COVER AT AUTOMATED STATIONS**
 *****  WEATHER ACROSS EASTERN NORTH DAKOTA  *****

CITY           SKY/WX    TMP DP  RH WIND       PRES   REMARKS
GRAND FORKS    PTCLDY     8   1  73 N14       30.25F WCI  -8
GRAND FORKS AF CLEAR      8   1  73 N14       30.26S WCI  -9
GRAND CITY NWS NOT AVBL
BUXTON           N/A      8   3  82 NW17        N/A  WCI -11
DEVILS LAKE    CLOUDY     7   4  87 N7        30.25S WCI  -5
FARGO          CLEAR      9   1  70 N22       30.21F WCI -11
WAHPETON ARPT  CLOUDY    10   1  67 N21G26    30.20S WCI  -9
$$

 *****  WEATHER ACROSS CENTRAL AND WESTERN NORTH DAKOTA  *****

CITY           SKY/WX    TMP DP  RH WIND       PRES   REMARKS
JAMESTOWN      CLEAR     12   8  84 N8        30.21S WCI   0
BISMARCK       PTCLDY    26  15  63 N10       30.27R WCI  16
MINOT          CLOUDY    24  15  68 NW9       30.27S WCI  14
MINOT AFB      CLOUDY    23  18  81 CALM      30.28R
GARRISON         N/A     18  14  84 NW6       30.25F WCI  10
WILLISTON      CLOUDY    31  21  66 CALM      30.25F
DICKINSON      CLOUDY    29  16  58 NW7       30.23R WCI  22
HETTINGER      CLOUDY    30  13  49 N7        30.25R WCI  23
$$

 *****  OTHER OBSERVATIONS NORTHEAST NORTH DAKOTA  *****

CITY           SKY/WX    TMP DP  RH WIND       PRES   REMARKS
WALHALLA       FAIR       5   1  85 NW7       30.29S WCI  -7
LANGDON        FAIR       1  -2  85 NW8       30.23R WCI -12
CAVALIER       FAIR       7   1  78 NW10      30.28S WCI  -8
GRAFTON        FAIR       5   1  85 NW9       30.30R WCI  -9
CANDO          FAIR       7   5  92 NW7       30.27S WCI  -5
FORT TOTTEN      N/A      9   6  87 N2        29.95S
ROLLA          FAIR      12   5  73 NW13      30.23S WCI  -3
RUGBY          FAIR      12   7  79 NW6       30.26S WCI   3
 ***** THE ABOVE OBSERVATIONS ARE NON NWS ARE NOT QUALITY
        CONTROLLED AND MAY MIS-REPORT RAIN FOR SNOW...
$$

 *****  OTHER OBSERVATIONS SOUTHEAST NORTH DAKOTA *****

CITY           SKY/WX    TMP DP  RH WIND       PRES   REMARKS
COOPERSTOWN    NOT AVBL
VALLEY CITY    CLOUDY     9   7  92 N12G20    30.24R WCI  -6
OAKES          FAIR      12   9  85 N10       30.22R WCI  -1
GWINNER        CLOUDY    10   9  92 N12       30.22S WCI  -4
SHEYENNE NWR     N/A      7   1  76 N7        29.95S WCI  -5
BUFFALO          N/A      6   1  81 N10         N/A  WCI  -9
WYNDMERE         N/A      9   3  78 N20         N/A  WCI -11
 ***** THE ABOVE OBSERVATIONS ARE NON NWS ARE NOT QUALITY
       CONTROLLED AND MAY MIS-REPORT RAIN FOR SNOW...
$$

  *****  WEATHER ACROSS NORTHERN MINNESOTA  *****

CITY           SKY/WX    TMP DP  RH WIND       PRES   REMARKS
FLAG ISLAND    CLEAR      1  -2  85 NW15      30.15S WCI -18
WARROAD        CLOUDY     3   0  85 NW9       30.17S WCI -11
ROSEAU         CLOUDY     5   0  78 NW15      30.18S WCI -13
HALLOCK        CLOUDY     7   0  72 N14       30.26R WCI -10
THF RVR FALLS  NOT AVBL
HALSTAD          N/A      7   5  91 N18         N/A  WCI -12
FOSSTON        LGT SNOW   5   1  85 N20G28    30.15F WCI -15
BAUDETTE       CLOUDY     4  -2  76 NW18G26   30.11R HAZE    WCI -16
WASKISH        CLOUDY     5   0  78 NW8       30.12R WCI  -8
CROOKSTON      CLEAR      7   1  78 N15       30.24S WCI -11
$$
  *****  WEATHER ACROSS CENTRAL AND WEST MINNESOTA  *****

CITY           SKY/WX    TMP DP  RH WIND       PRES   REMARKS
BEMIDJI        CLOUDY     4  -1  78 NW12G18   30.09R WCI -12
PARK RAPIDS    LGT SNOW   8   1  73 N20G25    30.06R WCI -11
WADENA         CLOUDY     7   1  78 N21G28    30.07R WCI -13
DETROIT LAKES  LGT SNOW   9   5  85 N21G30    30.12S WCI -11
MOORHEAD       CLEAR      7   1  78 N21G26    30.22R WCI -13
FERGUS FALLS   CLOUDY     9   1  72 N23G35    30.18S WCI -12
ELBOW LAKE     CLOUDY     8   3  80 NW23G30   30.13S WCI -13
MORRIS MN      MOCLDY     9   3  78 N25G35    30.12S WCI -13
STAPLES        CLOUDY     9   1  72 N17G23    30.05S WCI -10
WHEATON        PTCLDY    10   3  72 NW18G31   30.20S WCI  -8
$$
  *****  WEATHER ELSEWHERE ACROSS MINNESOTA  *****

CITY           SKY/WX    TMP DP  RH WIND       PRES   REMARKS
DULUTH         CLOUDY     4  -3  73 NW13G22   29.91R WCI -13
INTRNTL FALLS  CLOUDY     2  -4  76 NW14      30.06R WCI -16
ELY            LGT SNOW   3  -2  78 NW12      29.93R WCI -13
CLOQUET        CLOUDY     5  -2  72 NW15G24   29.94R WCI -13
BRAINERD       MIX PCPN   8   1  73 N18G28    30.03R WCI -11
HIBBING        CLOUDY     1  -3  83 NW16G28   29.97R WCI -19
ALEXANDRIA     CLOUDY     8   1  73 N26G35    30.07R WCI -14
SAINT CLOUD    CLOUDY    11   2  67 N18G24    30.02R WCI  -7
MINNEAPOLIS    FLURRIES  13   5  70 N15G23    29.98R WCI  -3
$$

  *****  WEATHER ACROSS SOUTH DAKOTA  *****

CITY           SKY/WX    TMP DP  RH WIND       PRES   REMARKS
SIOUX FALLS    CLEAR     19  10  68 N23G32    30.11R WCI   2
BROOKINGS      FLURRIES  13   8  81 N23G33    30.10R WCI  -6
WATERTOWN      MOCLDY    11   5  77 N21       30.12R WCI  -8
HURON          CLEAR     21  12  68 N21       30.19R WCI   5
SISSETON         N/A      9   4  80 N23       30.19R WCI -11
ABERDEEN       CLEAR     19  12  74 N15       30.22R WCI   5
MITCHELL       CLEAR     23  14  68 N16       30.19R WCI  10
PIERRE         MOCLDY    27  18  69 NW10      30.22R WCI  17
MOBRIDGE       MOCLDY    29  18  63 N13       30.21R WCI  19
RAPID CITY     CLOUDY    34  17  50 S3        30.23S
$$

  *****  SOME WEATHER IN NEARBY STATES *****

CITY           SKY/WX    TMP DP  RH WIND       PRES   REMARKS
GLASGOW MT     CLEAR     30  20  66 W3        30.23F
GREAT FALLS MT MOCLDY    42  29  59 SW9       30.32F
CHEYENNE WY    CLEAR     37  21  52 NW20G30   30.31S
SCOTTSBLUFF NE CLEAR     35  27  72 NW12      30.27F
OMAHA NE       MOCLDY    25  19  78 NW10      30.09F WCI  15
DES MOINES IA  FLURRIES  17   7  64 N23G31    30.00S WCI  -1
DAVENPORT IA   FLURRIES  17   9  70 NW17      29.86F WCI   1
CHICAGO IL     LGT SNOW  22  18  85 NW13      29.73S FOG     WCI  10
EAU CLAIRE WI  CLOUDY    11   1  64 N13       29.90R WCI  -4
LA CROSSE WI   FLURRIES  15   8  73 NW16      29.89S WCI  -1
$$

  *****  SOME NATIONAL WEATHER *****

CITY           SKY/WX    TMP DP  RH WIND       PRES   REMARKS
LA GUARDIA NY  FRZ DRZL  29  24  82 NE7       29.78F WCI  22
RALEIGH NC     FOG       36  36 100 CALM      29.64F VSB 1/4
ATLANTA GA     PTCLDY    37  22  54 W14       29.82F
NEW ORLEANS LA CLEAR     49  15  25 NW14      30.14R
OKLAHOMA CITY  PTCLDY    36  14  40 N15       30.26R
ALBUQUERQUE NM PTCLDY    46  22  38 N7        30.39R
SALT LAKE CITY PTCLDY    31  26  82 CALM      30.63R HAZE
LOS ANGELES CA CLEAR     73  30  20 CALM      30.10R
BOISE ID       CLEAR     36  31  82 SE3       30.63S
SEATTLE WA     PTCLDY    49  43  80 N12       30.31F
$$

*** WEATHER ACROSS MANITOBA...SASKATCHEWAN AND ONTARIO ***
                ***ONTARIO***

CITY           SKY/WX    TMP DP  RH WIND       PRES   REMARKS
GERALDTON      LGT SNOW  -4  -9  77 N10       29.82F DRFTSNOWWCI -21
THUNDER BAY    LGT SNOW   7   0  72 N6        29.89F WCI  -3
SIOUX LOOKOUT  FLURRIES   1  -4  78 N10G20    30.01S WCI -14
TORONTO        LGT SNOW  30  28  93 E15G25    29.56F WCI  19
BIG TROUT LK   FLURRIES  -4  -9  77 N7        30.09S WCI -18
PICKLE LAKE    NOT AVBL
DRYDEN         FLURRIES   1  -4  78 N9G20     30.04R WCI -14
KENORA         FLURRIES   1  -4  78 N15G21    30.11R WCI -18
$$
                *** MANITOBA***

CITY           SKY/WX    TMP DP  RH WIND       PRES   REMARKS
BRANDON        CLOUDY    12   7  79 E6        30.26S WCI   3
DAUPHIN        CLOUDY    14   9  79 W7        30.28F WCI   4
ISLAND LAKE    LGT SNOW  -4  -9  77 NW15      30.23R DRFTSNOWWCI -25
PILOT MOUND      N/A      1  -2  85 NW5         N/A  WCI  -8
THE PAS        FLURRIES   7   0  72 N7        30.31S WCI  -5
THOMPSON       CLEAR    -18 -24  76 N7        30.33F WCI -35
WINNIPEG       CLEAR     -2  -8  78 NW8       30.28S WCI -17
LYNN LAKE      CLEAR    -18 -24  76 N7        30.33S WCI -35
CHURCHILL      CRYSTALS -20 -27  69 N17G25    30.36S BLWGSNOWWCI -47
GILLAM         CLEAR    -18 -26  69 N12       30.30S WCI -40
$$
                ***SASKATCHEWAN***

CITY           SKY/WX    TMP DP  RH WIND       PRES   REMARKS
ESTEVAN        CLOUDY    25  21  86 S2        30.26S
KINDERSLEY     PTCLDY    27  23  86 NW7       30.23S WCI  19
LLOYDMINSTER   CLOUDY    28  27  93 W8        30.20F WCI  20
PRINCE ALBERT  MOCLDY    23  18  80 W3        30.21S
REGINA         CLOUDY    27  21  80 SE9       30.22F WCI  17
YORKTON        CLOUDY    23  18  80 SW7       30.21F WC1F1C2F2C3F3C4F4C5F5C6F6C7F7C8F8C9F9CaFaCbFbCcFcCdFdCe!


USA.gov is the U.S. government's official web portal to all federal, state and local government web resources and services.